Home   Weather   Amsterdam   Past weeks
Flag for Netherlands

Past Weather in Amsterdam, Netherlands — Yesterday and Last 2 Weeks

Now
50 °F

Clear.


Feels Like: 47 °F
Forecast: 58 / 51 °F
Wind: 7 mph from South

Location: Amsterdam Schiphol Airport

Current Time: Oct 20, 2019 at 3:08:59 am

Latest Report: Oct 20, 2019 at 2:25 am


Visibility: 10 mi

Pressure: 29.71 "Hg

Humidity: 94%

Dew Point: 48 °F

Location of AmsterdamLocation

Past Weather in Amsterdam — Graph

°F

Amsterdam Temperature Yesterday

Maximum temperature yesterday: 59 °F (at 1:55 pm)
Minimum temperature yesterday: 50 °F (at 12:25 am)
Average temperature yesterday: 53 °F

High & Low Weather Summary for the Past Weeks

 TemperatureHumidityPressure
High70 °F (Oct 13, 2:25 pm)100% (Oct 5, 1:55 am)30.07 "Hg (Oct 5, 1:55 am)
Low39 °F (Oct 5, 6:55 am)63% (Oct 5, 2:55 pm)29.53 "Hg (Oct 18, 10:25 am)
Average55 °F87%29.76 "Hg
* Reported Oct 5 1:25 am — Oct 20 1:55 am, Amsterdam. Weather by CustomWeather, © 2019

Note: Actual official high and low records may vary slightly from our data, if they occured in-between our weather recording intervals... More about our weather records

Advertising

Amsterdam Weather History for the Previous 24 Hours

Scroll right to see more
 ConditionsComfort  
Time TempWeatherWind HumidityBarometerVisibility
1:55 am
Sun, Oct 20
50 °FClear.8 mph94%29.68 "Hg10 mi
1:25 am50 °FClear.9 mph94%29.68 "Hg10 mi
12:55 am50 °FClear.8 mph94%29.68 "Hg10 mi
12:25 am50 °FClear.8 mph94%29.68 "Hg10 mi
11:55 pm
Sat, Oct 19
50 °FClear.8 mph94%29.68 "Hg10 mi
11:25 pm50 °FClear.9 mph94%29.68 "Hg10 mi
10:55 pm52 °FClear.9 mph88%29.65 "Hg10 mi
10:25 pm52 °FPassing clouds.8 mph88%29.65 "HgN/A
9:55 pm52 °FPassing clouds.9 mph88%29.65 "HgN/A
9:25 pm52 °FClear.9 mph88%29.65 "Hg10 mi
8:55 pm52 °FClear.9 mph88%29.62 "Hg10 mi
8:25 pm52 °FPassing clouds.10 mph88%29.62 "HgN/A
7:55 pm54 °FPassing clouds.10 mph82%29.62 "HgN/A
7:25 pm54 °FPassing clouds.9 mph88%29.62 "HgN/A
6:55 pm55 °FPassing clouds.12 mph77%29.62 "HgN/A
6:25 pm55 °FPassing clouds.14 mph77%29.62 "HgN/A
5:55 pm55 °FPassing clouds.14 mph82%29.62 "HgN/A
5:25 pm57 °FPassing clouds.16 mph77%29.59 "HgN/A
4:55 pm57 °FPassing clouds.15 mph72%29.59 "HgN/A
4:25 pm57 °FPassing clouds.15 mph77%29.59 "HgN/A
3:55 pm57 °FPassing clouds.17 mph77%29.59 "HgN/A
3:25 pm57 °FPassing clouds.16 mph77%29.59 "HgN/A
2:55 pm57 °FPassing clouds.17 mph77%29.59 "HgN/A
2:25 pm57 °FScattered clouds.17 mph77%29.59 "HgN/A
1:55 pm59 °FPassing clouds.15 mph72%29.59 "HgN/A
1:25 pm57 °FPassing clouds.17 mph77%29.59 "HgN/A
12:55 pm57 °FScattered clouds.17 mph77%29.59 "HgN/A
12:25 pm57 °FPassing clouds.13 mph82%29.59 "HgN/A
11:55 am55 °FScattered clouds.10 mph88%29.59 "HgN/A
11:25 am55 °FPassing clouds.13 mph88%29.59 "HgN/A
10:55 am55 °FScattered clouds.14 mph88%29.59 "HgN/A
10:25 am54 °FPassing clouds.13 mph94%29.59 "HgN/A
9:55 am54 °FPassing clouds.13 mph94%29.59 "HgN/A
9:25 am54 °FLight rain. Passing clouds.15 mph94%29.56 "HgN/A
8:55 am52 °FScattered clouds.14 mph94%29.56 "HgN/A
8:25 am52 °FScattered clouds.14 mph94%29.56 "HgN/A
7:55 am52 °FPassing clouds.14 mph88%29.56 "HgN/A
7:25 am52 °FPassing clouds.14 mph88%29.59 "HgN/A
6:55 am52 °FClear.14 mph88%29.59 "Hg10 mi
6:25 am52 °FClear.13 mph88%29.59 "Hg10 mi
5:55 am52 °FPassing clouds.14 mph82%29.59 "HgN/A
5:25 am50 °FClear.14 mph88%29.59 "Hg10 mi
4:55 am50 °FClear.14 mph88%29.59 "Hg10 mi
4:25 am50 °FClear.14 mph88%29.59 "Hg10 mi
3:55 am50 °FPassing clouds.15 mph88%29.59 "HgN/A
3:25 am50 °FPassing clouds.15 mph88%29.62 "HgN/A
Weather by CustomWeather, © 2019

See weather overview